Weather reports worldwide

Advertisment
Murcia/Alcantarilla, Spain (8429): temperature & dewpoint: 19.03.2019 18:00:00 - 25.03.2019 18:00:00 (CET)Murcia/Alcantarilla, Spain (8429): wind speed: 19.03.2019 18:00:00 - 25.03.2019 18:00:00 (CET)Murcia/Alcantarilla, Spain (8429): wind direction: 19.03.2019 18:00:00 - 25.03.2019 18:00:00 (CET)Murcia/Alcantarilla, Spain (8429): reduced air pressure: 19.03.2019 18:00:00 - 25.03.2019 18:00:00 (CET)Murcia/Alcantarilla, Spain (8429): visibility: 19.03.2019 18:00:00 - 25.03.2019 18:00:00 (CET)
Date & Time tt [°C] td [°C] ff [km/h] ff [kn] dd ppp [hPa] vv [km]
25.03.2019 18:00:00 - - - - - - -
25.03.2019 17:00:00 - - - - - - -
25.03.2019 16:00:00 22,6 3,2 13 7 E 1017,3 50
25.03.2019 15:00:00 - - - - - - -
25.03.2019 14:00:00 - - - - - - -
25.03.2019 13:00:00 20,9 5,3 8 4 N 1020,2 40
25.03.2019 12:00:00 - - - - - - -
25.03.2019 11:00:00 - - - - - - -
25.03.2019 10:00:00 14,6 3,4 4 2 N 1021,8 40
25.03.2019 09:00:00 - - - - - - -
25.03.2019 08:00:00 - - - - - - -
25.03.2019 07:00:00 6,4 3,6 4 2 NE 1021,8 40
25.03.2019 06:00:00 - - - - - - -
25.03.2019 05:00:00 - - - - - - -
25.03.2019 04:00:00 - - - - - - -
25.03.2019 03:00:00 - - - - - - -
25.03.2019 02:00:00 - - - - - - -
25.03.2019 01:00:00 - - - - - - -
25.03.2019 00:00:00 - - - - - - -
24.03.2019 23:00:00 - - - - - - -
24.03.2019 22:00:00 - - - - - - -
24.03.2019 21:00:00 - - - - - - -
24.03.2019 20:00:00 - - - - - - -
24.03.2019 19:00:00 18,5 4,7 15 8 NE 1021,8 50
24.03.2019 18:00:00 - - - - - - -
24.03.2019 17:00:00 - - - - - - -
24.03.2019 16:00:00 20,5 2,8 21 11 ENE 1021,8 50
24.03.2019 15:00:00 - - - - - - -
24.03.2019 14:00:00 - - - - - - -
24.03.2019 13:00:00 18,1 6,0 11 6 ENE 1023,9 30
24.03.2019 12:00:00 - - - - - - -
24.03.2019 11:00:00 - - - - - - -
24.03.2019 10:00:00 11,9 6,8 2 1 ENE 1025,1 20
24.03.2019 09:00:00 - - - - - - -
24.03.2019 08:00:00 - - - - - - -
24.03.2019 07:00:00 6,3 5,9 0 0 N 1024,8 5
24.03.2019 06:00:00 - - - - - - -
24.03.2019 05:00:00 - - - - - - -
24.03.2019 04:00:00 - - - - - - -
24.03.2019 03:00:00 - - - - - - -
24.03.2019 02:00:00 - - - - - - -
24.03.2019 01:00:00 - - - - - - -
24.03.2019 00:00:00 - - - - - - -
23.03.2019 23:00:00 - - - - - - -
23.03.2019 22:00:00 - - - - - - -
23.03.2019 21:00:00 - - - - - - -
23.03.2019 20:00:00 - - - - - - -
23.03.2019 19:00:00 16,1 6,5 9 5 NE 1024,8 30
23.03.2019 18:00:00 - - - - - - -
23.03.2019 17:00:00 - - - - - - -
23.03.2019 16:00:00 16,3 5,3 2 1 ESE 1025,0 30
23.03.2019 15:00:00 - - - - - - -
23.03.2019 14:00:00 - - - - - - -
23.03.2019 13:00:00 13,6 6,9 8 4 SSW 1026,6 30
23.03.2019 12:00:00 - - - - - - -
23.03.2019 11:00:00 - - - - - - -
23.03.2019 10:00:00 13,7 4,8 5 3 NNW 1026,9 50
23.03.2019 09:00:00 - - - - - - -
23.03.2019 08:00:00 - - - - - - -
23.03.2019 07:00:00 10,6 6,7 4 2 N 1026,3 50
23.03.2019 06:00:00 - - - - - - -
23.03.2019 05:00:00 - - - - - - -
23.03.2019 04:00:00 - - - - - - -
23.03.2019 03:00:00 - - - - - - -
23.03.2019 02:00:00 - - - - - - -
23.03.2019 01:00:00 - - - - - - -
23.03.2019 00:00:00 - - - - - - -
22.03.2019 23:00:00 - - - - - - -
22.03.2019 22:00:00 - - - - - - -
22.03.2019 21:00:00 - - - - - - -
22.03.2019 20:00:00 - - - - - - -
22.03.2019 19:00:00 17,9 4,1 11 6 E 1024,9 50
22.03.2019 18:00:00 - - - - - - -
22.03.2019 17:00:00 - - - - - - -
22.03.2019 16:00:00 19,9 3,2 13 7 E 1024,7 40
22.03.2019 15:00:00 - - - - - - -
22.03.2019 14:00:00 - - - - - - -
22.03.2019 13:00:00 17,3 2,5 8 4 N 1026,6 40
22.03.2019 12:00:00 - - - - - - -
22.03.2019 11:00:00 - - - - - - -
22.03.2019 10:00:00 12,8 2,9 5 3 N 1027,9 40
22.03.2019 09:00:00 - - - - - - -
22.03.2019 08:00:00 - - - - - - -
22.03.2019 07:00:00 6,2 3,9 8 4 WSW 1027,4 20
22.03.2019 06:00:00 - - - - - - -
22.03.2019 05:00:00 - - - - - - -
22.03.2019 04:00:00 - - - - - - -
22.03.2019 03:00:00 - - - - - - -
22.03.2019 02:00:00 - - - - - - -
22.03.2019 01:00:00 - - - - - - -
22.03.2019 00:00:00 - - - - - - -
21.03.2019 23:00:00 - - - - - - -
21.03.2019 22:00:00 - - - - - - -
21.03.2019 21:00:00 - - - - - - -
21.03.2019 20:00:00 - - - - - - -
21.03.2019 19:00:00 14,5 4,8 21 11 E 1025,3 40
21.03.2019 18:00:00 - - - - - - -
21.03.2019 17:00:00 - - - - - - -
21.03.2019 16:00:00 17,0 1,0 13 7 E 1025,1 50
21.03.2019 15:00:00 - - - - - - -
21.03.2019 14:00:00 - - - - - - -
21.03.2019 13:00:00 16,2 0,7 21 11 E 1026,9 50
21.03.2019 12:00:00 - - - - - - -
21.03.2019 11:00:00 - - - - - - -
21.03.2019 10:00:00 12,2 3,9 5 3 N 1027,6 40
21.03.2019 09:00:00 - - - - - - -
21.03.2019 08:00:00 - - - - - - -
21.03.2019 07:00:00 4,5 0,5 8 4 SW 1028,2 30
21.03.2019 06:00:00 - - - - - - -
21.03.2019 05:00:00 - - - - - - -
21.03.2019 04:00:00 - - - - - - -
21.03.2019 03:00:00 - - - - - - -
21.03.2019 02:00:00 - - - - - - -
21.03.2019 01:00:00 - - - - - - -
21.03.2019 00:00:00 - - - - - - -
20.03.2019 23:00:00 - - - - - - -
20.03.2019 22:00:00 - - - - - - -
20.03.2019 21:00:00 - - - - - - -
20.03.2019 20:00:00 - - - - - - -
20.03.2019 19:00:00 12,2 5,1 11 6 E 1027,3 50
20.03.2019 18:00:00 - - - - - - -
20.03.2019 17:00:00 - - - - - - -
20.03.2019 16:00:00 15,0 2,9 13 7 ENE 1026,9 50
20.03.2019 15:00:00 - - - - - - -
20.03.2019 14:00:00 - - - - - - -
20.03.2019 13:00:00 14,0 4,3 15 8 E 1027,9 50
20.03.2019 12:00:00 - - - - - - -
20.03.2019 11:00:00 - - - - - - -
20.03.2019 10:00:00 11,6 6,1 4 2 N 1028,1 50
20.03.2019 09:00:00 - - - - - - -
20.03.2019 08:00:00 - - - - - - -
20.03.2019 07:00:00 7,4 5,5 2 1 N 1026,7 50
20.03.2019 06:00:00 - - - - - - -
20.03.2019 05:00:00 - - - - - - -
20.03.2019 04:00:00 - - - - - - -
20.03.2019 03:00:00 - - - - - - -
20.03.2019 02:00:00 - - - - - - -
20.03.2019 01:00:00 - - - - - - -
20.03.2019 00:00:00 - - - - - - -
19.03.2019 23:00:00 - - - - - - -
19.03.2019 22:00:00 - - - - - - -
19.03.2019 21:00:00 - - - - - - -
19.03.2019 20:00:00 - - - - - - -
19.03.2019 19:00:00 13,6 5,5 13 7 E 1023,8 50
19.03.2019 18:00:00 - - - - - - -

tt = temperature
td = dewpoint
ff = wind speed
dd = wind direction
ppp = reduced air pressure
vv = visibility

Next stations